Printer-friendly version
Follow the MPC on Twitter Follow the MPC on Facebook The MPC blog
Minor Planet Center

MPEC 2009-F13 : 2009 FH

The following Minor Planet Electronic Circular may be linked-to from your own Web pages, but must not otherwise be redistributed electronically.

A form allowing access to any MPEC is at the bottom of this page.


Read MPEC 2009-F12 Read MPEC 2009-F14


M.P.E.C. 2009-F13                                Issued 2009 Mar. 17, 16:52 UT

     The Minor Planet Electronic Circulars contain information on unusual
         minor planets and routine data on comets.  They are published
   on behalf of Commission 20 of the International Astronomical Union by the
          Minor Planet Center, Smithsonian Astrophysical Observatory,
                          Cambridge, MA 02138, U.S.A.

             Prepared using the Tamkin Foundation Computer Network

                              MPC@CFA.HARVARD.EDU
          URL http://www.cfa.harvard.edu/iau/mpc.html  ISSN 1523-6714

                                    2009 FH

Observations:
     K09F00H* C2009 03 17.17227 09 06 00.03 +09 47 34.6          16.5 V EF013703
     K09F00H  C2009 03 17.17696 09 05 51.79 +09 48 34.5          16.4 V EF013703
     K09F00H  C2009 03 17.18176 09 05 43.26 +09 49 36.7          16.3 V EF013703
     K09F00H  C2009 03 17.18657 09 05 34.69 +09 50 38.2          16.3 V EF013703
     K09F00H  C2009 03 17.22867509 03 40.52 +09 55 32.0          16.1 V EF013H55
     K09F00H  C2009 03 17.22979209 03 38.54 +09 55 45.9          16.2 V EF013H55
     K09F00H  C2009 03 17.23091209 03 36.54 +09 55 59.8          16.1 V EF013H55
     K09F00H  C2009 03 17.23203509 03 34.56 +09 56 13.8          16.2 V EF013H55
     K09F00H  C2009 03 17.23315509 03 32.56 +09 56 27.6          16.1 V EF013H55
     K09F00H  C2009 03 17.23351 09 04 01.00 +09 59 59.0          16.1 R EF013H01
     K09F00H  C2009 03 17.23421 09 04 06.02 +10 01 02.3          16.4 V EF013703
     K09F00H  C2009 03 17.23425109 03 30.60 +09 56 41.4          16.2 V EF013H55
     K09F00H  C2009 03 17.23457 09 04 05.34 +10 01 07.1          16.5 V EF013703
     K09F00H  C2009 03 17.23495 09 04 04.62 +10 01 11.8          16.4 V EF013703
     K09F00H  C2009 03 17.23533909 03 28.68 +09 56 55.1          16.0 V EF013H55
     K09F00H  C2009 03 17.23829 09 03 51.91 +10 01 01.9          16.2 R EF013H01
     K09F00H  C2009 03 17.24370 09 03 41.56 +10 02 13.4          16.6 R EF013H01
     K09F00H  C2009 03 17.24406 09 03 47.14 +10 03 18.5          16.1 R EF013854
     K09F00H  C2009 03 17.24443 09 03 46.39 +10 03 23.3          16.1 R EF013854
     K09F00H  C2009 03 17.24480 09 03 45.68 +10 03 28.2          16.1 R EF013854
     K09F00H 5C2009 03 17.24887709 03 51.695+10 03 24.49         16.0 R EF013673
     K09F00H  C2009 03 17.24936 09 03 30.70 +10 03 28.3          16.5 R EF013H01
     K09F00H 5C2009 03 17.25235009 03 44.977+10 04 11.39                EF013673
     K09F00H 5C2009 03 17.25651609 03 36.840+10 05 08.38                EF013673
     K09F00H 5C2009 03 17.26068309 03 28.663+10 06 05.67                EF013673
     K09F00H 5C2009 03 17.26693309 03 16.367+10 07 31.34                EF013673
     K09F00H 5C2009 03 17.27318309 03 04.031+10 08 57.61                EF013673
     K09F00H  C2009 03 17.32156 09 01 13.83 +10 20 57.0          16.4 V EF013703
     K09F00H  C2009 03 17.32185 09 01 13.22 +10 21 01.1          16.4 V EF013703
     K09F00H  C2009 03 17.32214 09 01 12.68 +10 21 05.0          16.3 V EF013703
     K09F00H  C2009 03 17.32244 09 01 12.07 +10 21 09.4          16.2 V EF013703

Observer details:
673 Table Mountain Observatory, Wrightwood.  Observer J. Young.  0.61-m f/16
    Cassegrain + CCD.
703 Catalina Sky Survey.  Observer R. E. Hill.  Measurers E. C. Beshore,
    A. Boattini, G. J. Garradd, A. R. Gibbs, A. D. Grauer, R. E. Hill,
    R. A. Kowalski, S. M. Larson, R. H. McNaught.  0.68-m Schmidt + CCD.
854 Sabino Canyon Observatory, Tucson.  Observer J. E. McGaha.  0.36-m f/10.0
    Schmidt-Cassegrain + CCD.
H01 Magdalena Ridge Observatory, Socorro.  Observer W. H. Ryan.  2.4-m f/8.9
    reflector + CCD.
H55 Astronomical Research Observatory, Charleston.  Observer R. Holmes.
    Measurer S. Foglia.

Orbital elements:
2009 FH                                                  Earth MOID = 0.0002 AU
Epoch 2009 June 18.0 TT = JDT 2455000.5                 MPC
M  39.79214              (2000.0)            P               Q
n   0.55208169     Peri.   24.02755     -0.93625029     +0.35133302
a   1.4716363      Node   176.54108     -0.32422998     -0.86323794
e   0.3372367      Incl.    0.67849     -0.13531564     -0.36247120
P   1.79           H   26.6           G   0.15           U   6
Residuals in seconds of arc
090317 703  0.0   0.6-    090317 H55  0.1-  0.4-    090317 673  0.4+  0.5-
090317 703  0.1+  0.8-    090317 703  0.9+  0.7-    090317 673  0.2+  0.3-
090317 703  0.2-  0.3-    090317 703  1.0+  1.1-    090317 673  0.0   0.1-
090317 703  0.3+  0.9-    090317 H55  0.1+  0.2-    090317 673  0.1+  0.2-
090317 H55  0.2+  0.3-    090317 H01  0.0   0.4-    090317 673  0.6+  0.1-
090317 H55  0.2+  0.3-    090317 H01  0.3-  0.3-    090317 703  0.2+  0.6-
090317 H55  0.0   0.3-    090317 854  0.2+  0.1+    090317 703  0.3-  0.6-
090317 H55  0.3+  0.3-    090317 854  0.3-  0.0     090317 703  0.3+  0.8-
090317 H55  0.1+  0.5-    090317 854  0.2-  0.1-    090317 703  0.1+  0.7-
090317 H01  0.1-  0.5-    090317 673  0.1-  0.1-
090317 703  0.7+  0.8-    090317 H01  0.4-  0.3-

Ephemeris:
2009 FH                  a,e,i = 1.47, 0.34, 1                   q = 0.9753
Date    TT    R. A. (2000) Decl.     Delta      r     Elong.  Phase     V
2009 03 10    09 27.10   +05 48.3    0.0288   1.019   151.6    27.7    20.2
2009 03 11    09 26.38   +05 54.8    0.0255   1.016   150.4    28.9    19.9
2009 03 12    09 25.52   +06 03.3    0.0221   1.013   149.3    30.1    19.7
2009 03 13    09 24.46   +06 14.7    0.0187   1.010   148.0    31.4    19.3
2009 03 14    09 23.01   +06 31.2    0.0153   1.007   146.7    32.8    18.9
2009 03 15    09 20.84   +06 56.8    0.0120   1.004   145.1    34.5    18.4
2009 03 16    09 17.05   +07 42.5    0.00860  1.002   143.2    36.6    17.8
2009 03 17    09 08.44   +09 26.6    0.00524  0.999   139.8    40.0    16.8
2009 03 18    08 27.74   +17 11.2    0.00188  0.996   127.6    52.3    14.9
2009 03 19    21 49.90   -00 52.6    0.00181  0.994    31.0   148.9    21.1
2009 03 20    21 08.75   -09 23.2    0.00516  0.992    43.0   136.8    21.6

Sonia Keys                   (C) Copyright 2009 MPC           M.P.E.C. 2009-F13

Read MPEC 2009-F12 Read MPEC 2009-F14


MPEC number:

Enter an MPEC number in one of the following forms:

  • 1997-B01 (the full form)
  • J97B01 (the packed version of the full form)
  • B01 (the abbreviated form)

Valid HTML 4.01!